• în România
  • Lista ţărilor
  • Pe 7 zile
  • Temperatura apei
  • Hartă satelitară
  • Meteo pe hartă
  • Widget-uri
  • user-avatar
    Intrare

    Meteo pe oră la Da Nang

    Astăzi, 27 Mai, Duminică

    Timp Temperatura Precipitaţii Vânt Presiune Umiditate
    00:00 +29°C° 0,1 mm 2 m/s 756 mmHg 71%
    01:00 +28°C° 0 mm 2 m/s 756 mmHg 68%
    02:00 +28°C° 0 mm 2 m/s 756 mmHg 67%
    03:00 +28°C° 0 mm 2 m/s 756 mmHg 66%
    04:00 +28°C° 0 mm 2 m/s 755 mmHg 64%
    05:00 +29°C° 0 mm 1 m/s 756 mmHg 62%
    06:00 +30°C° 0 mm 1 m/s 756 mmHg 61%
    07:00 +30°C° 0 mm 1 m/s 756 mmHg 59%
    08:00 +33°C° 0 mm 1 m/s 756 mmHg 51%
    09:00 +36°C° 0 mm 1 m/s 756 mmHg 43%
    10:00 +40°C° 0 mm 1 m/s 756 mmHg 35%
    11:00 +40°C° 0 mm 1 m/s 756 mmHg 35%
    12:00 +40°C° 0 mm 2 m/s 756 mmHg 35%
    13:00 +40°C° 0 mm 3 m/s 755 mmHg 35%
    14:00 +39°C° 0 mm 3 m/s 755 mmHg 41%
    15:00 +38°C° 0 mm 3 m/s 754 mmHg 47%
    16:00 +36°C° 0 mm 3 m/s 754 mmHg 54%
    17:00 +35°C° 0,1 mm 3 m/s 754 mmHg 63%
    18:00 +33°C° 0,1 mm 3 m/s 754 mmHg 72%
    19:00 +30°C° 0,1 mm 3 m/s 755 mmHg 82%
    20:00 +30°C° 0,1 mm 3 m/s 755 mmHg 82%
    21:00 +30°C° 0,1 mm 3 m/s 756 mmHg 83%
    22:00 +29°C° 0,1 mm 3 m/s 756 mmHg 84%
    23:00 +29°C° 0 mm 3 m/s 756 mmHg 84%

    Mâine, 28 Mai, Luni

    Timp Temperatura Precipitaţii Vânt Presiune Umiditate
    00:00 +29°C° 0 mm 3 m/s 755 mmHg 83%
    01:00 +29°C° 0 mm 3 m/s 755 mmHg 83%
    02:00 +29°C° 0 mm 2 m/s 755 mmHg 82%
    03:00 +28°C° 0 mm 2 m/s 755 mmHg 82%
    04:00 +28°C° 0 mm 2 m/s 754 mmHg 81%
    05:00 +29°C° 0 mm 2 m/s 755 mmHg 77%
    06:00 +30°C° 0 mm 2 m/s 755 mmHg 74%
    07:00 +31°C° 0 mm 2 m/s 756 mmHg 70%
    08:00 +34°C° 0 mm 2 m/s 756 mmHg 60%
    09:00 +37°C° 0 mm 2 m/s 756 mmHg 51%
    10:00 +40°C° 0 mm 2 m/s 756 mmHg 41%
    11:00 +40°C° 0 mm 2 m/s 756 mmHg 40%
    12:00 +42°C° 0 mm 3 m/s 755 mmHg 38%
    13:00 +42°C° 0 mm 3 m/s 755 mmHg 37%
    14:00 +40°C° 0,1 mm 4 m/s 755 mmHg 44%
    15:00 +38°C° 0,1 mm 4 m/s 754 mmHg 51%
    16:00 +36°C° 0,1 mm 4 m/s 754 mmHg 58%
    17:00 +35°C° 0,5 mm 4 m/s 754 mmHg 65%
    18:00 +33°C° 0,5 mm 3 m/s 754 mmHg 71%
    19:00 +30°C° 0,5 mm 3 m/s 755 mmHg 78%
    20:00 +30°C° 0,2 mm 3 m/s 755 mmHg 81%
    21:00 +29°C° 0,2 mm 3 m/s 756 mmHg 84%
    22:00 +29°C° 0,2 mm 3 m/s 756 mmHg 87%
    23:00 +28°C° 0,4 mm 3 m/s 756 mmHg 88%

    Poimâine, 29 Mai, Marţi

    Timp Temperatura Precipitaţii Vânt Presiune Umiditate
    00:00 +28°C° 0,4 mm 3 m/s 756 mmHg 88%
    01:00 +28°C° 0,4 mm 3 m/s 756 mmHg 89%
    02:00 +28°C° 0 mm 2 m/s 755 mmHg 88%
    03:00 +28°C° 0 mm 2 m/s 755 mmHg 87%
    04:00 +28°C° 0 mm 2 m/s 755 mmHg 86%
    05:00 +28°C° 0 mm 2 m/s 755 mmHg 82%
    06:00 +29°C° 0 mm 2 m/s 756 mmHg 78%
    07:00 +30°C° 0 mm 2 m/s 756 mmHg 75%
    08:00 +34°C° 0 mm 2 m/s 756 mmHg 64%
    09:00 +37°C° 0 mm 2 m/s 756 mmHg 53%
    10:00 +40°C° 0 mm 2 m/s 756 mmHg 43%
    11:00 +40°C° 0 mm 2 m/s 756 mmHg 42%
    12:00 +40°C° 0 mm 3 m/s 756 mmHg 41%
    13:00 +41°C° 0 mm 4 m/s 755 mmHg 41%
    14:00 +40°C° 0,6 mm 4 m/s 755 mmHg 50%
    15:00 +37°C° 0,6 mm 4 m/s 754 mmHg 59%
    16:00 +35°C° 0,6 mm 4 m/s 753 mmHg 68%
    17:00 +33°C° 0,9 mm 3 m/s 754 mmHg 75%
    18:00 +31°C° 0,9 mm 3 m/s 754 mmHg 82%
    19:00 +29°C° 0,9 mm 3 m/s 755 mmHg 89%
    20:00 +29°C° 0,2 mm 3 m/s 755 mmHg 90%
    21:00 +29°C° 0,2 mm 3 m/s 756 mmHg 91%
    22:00 +28°C° 0,2 mm 3 m/s 756 mmHg 93%
    23:00 +28°C° 0 mm 3 m/s 756 mmHg 93%

    30 Mai, Miercuri

    Timp Temperatura Precipitaţii Vânt Presiune Umiditate
    00:00 +28°C° 0 mm 3 m/s 756 mmHg 93%
    01:00 +28°C° 0 mm 3 m/s 755 mmHg 93%
    02:00 +27°C° 0 mm 3 m/s 755 mmHg 92%
    03:00 +27°C° 0 mm 2 m/s 755 mmHg 92%
    04:00 +27°C° 0 mm 2 m/s 755 mmHg 91%
    05:00 +28°C° 0 mm 2 m/s 756 mmHg 86%
    06:00 +29°C° 0 mm 2 m/s 756 mmHg 80%
    07:00 +31°C° 0 mm 2 m/s 756 mmHg 74%
    08:00 +35°C° 0 mm 2 m/s 756 mmHg 63%
    09:00 +37°C° 0 mm 2 m/s 756 mmHg 52%
    10:00 +40°C° 0 mm 2 m/s 756 mmHg 41%
    11:00 +42°C° 0 mm 3 m/s 756 mmHg 40%
    12:00 +42°C° 0 mm 4 m/s 755 mmHg 40%
    13:00 +42°C° 0 mm 4 m/s 754 mmHg 39%
    14:00 +41°C° 0 mm 4 m/s 754 mmHg 44%
    15:00 +38°C° 0 mm 4 m/s 754 mmHg 50%
    16:00 +37°C° 0 mm 4 m/s 753 mmHg 56%
    17:00 +35°C° 0,4 mm 4 m/s 754 mmHg 64%
    18:00 +33°C° 0,4 mm 4 m/s 754 mmHg 73%
    19:00 +30°C° 0,4 mm 3 m/s 755 mmHg 82%
    20:00 +30°C° 0,1 mm 3 m/s 755 mmHg 85%
    21:00 +29°C° 0,1 mm 3 m/s 756 mmHg 87%
    22:00 +29°C° 0,1 mm 3 m/s 756 mmHg 90%
    23:00 +28°C° 0 mm 3 m/s 756 mmHg 91%

    31 Mai, Joi

    Timp Temperatura Precipitaţii Vânt Presiune Umiditate
    00:00 +28°C° 0 mm 3 m/s 756 mmHg 91%
    01:00 +28°C° 0 mm 3 m/s 755 mmHg 92%
    02:00 +27°C° 0 mm 3 m/s 755 mmHg 91%
    03:00 +27°C° 0 mm 3 m/s 755 mmHg 91%
    04:00 +27°C° 0 mm 2 m/s 755 mmHg 90%
    05:00 +28°C° 0,2 mm 2 m/s 755 mmHg 87%
    06:00 +29°C° 0,2 mm 2 m/s 756 mmHg 83%
    07:00 +30°C° 0,2 mm 2 m/s 756 mmHg 79%
    08:00 +35°C° 0 mm 2 m/s 756 mmHg 66%
    09:00 +38°C° 0 mm 2 m/s 756 mmHg 52%
    10:00 +41°C° 0 mm 2 m/s 756 mmHg 39%
    11:00 +41°C° 0 mm 2 m/s 755 mmHg 39%
    12:00 +42°C° 0 mm 3 m/s 755 mmHg 38%
    13:00 +42°C° 0 mm 4 m/s 754 mmHg 38%
    14:00 +41°C° 0 mm 4 m/s 754 mmHg 44%
    15:00 +40°C° 0 mm 4 m/s 754 mmHg 50%
    16:00 +37°C° 0 mm 4 m/s 753 mmHg 56%
    17:00 +35°C° 0,5 mm 4 m/s 754 mmHg 65%
    18:00 +33°C° 0,5 mm 3 m/s 754 mmHg 74%
    19:00 +30°C° 0,5 mm 3 m/s 755 mmHg 83%
    20:00 +30°C° 0,3 mm 3 m/s 755 mmHg 85%
    21:00 +29°C° 0,3 mm 3 m/s 756 mmHg 87%
    22:00 +29°C° 0,3 mm 3 m/s 756 mmHg 90%
    23:00 +28°C° 0 mm 3 m/s 756 mmHg 90%

    1 Iunie, Vineri

    Timp Temperatura Precipitaţii Vânt Presiune Umiditate
    00:00 +28°C° 0 mm 3 m/s 755 mmHg 90%
    01:00 +28°C° 0 mm 3 m/s 755 mmHg 90%
    02:00 +28°C° 0 mm 3 m/s 755 mmHg 90%
    03:00 +27°C° 0 mm 2 m/s 754 mmHg 89%
    04:00 +27°C° 0 mm 2 m/s 754 mmHg 88%
    05:00 +29°C° 0 mm 2 m/s 755 mmHg 82%
    06:00 +30°C° 0 mm 2 m/s 755 mmHg 76%
    07:00 +31°C° 0 mm 2 m/s 755 mmHg 70%
    08:00 +36°C° 0 mm 2 m/s 755 mmHg 59%
    09:00 +39°C° 0 mm 2 m/s 755 mmHg 47%
    10:00 +42°C° 0 mm 1 m/s 755 mmHg 36%
    11:00 +42°C° 0 mm 2 m/s 755 mmHg 35%
    12:00 +43°C° 0 mm 3 m/s 754 mmHg 35%
    13:00 +43°C° 0 mm 4 m/s 753 mmHg 34%
    14:00 +42°C° 0 mm 4 m/s 753 mmHg 40%
    15:00 +40°C° 0 mm 4 m/s 753 mmHg 46%
    16:00 +38°C° 0 mm 4 m/s 752 mmHg 52%
    17:00 +36°C° 0,2 mm 4 m/s 753 mmHg 62%
    18:00 +34°C° 0,2 mm 3 m/s 753 mmHg 71%
    19:00 +31°C° 0,2 mm 3 m/s 754 mmHg 81%
    20:00 +30°C° 0,3 mm 3 m/s 754 mmHg 83%
    21:00 +29°C° 0,3 mm 3 m/s 755 mmHg 86%
    22:00 +29°C° 0,3 mm 3 m/s 755 mmHg 89%
    23:00 +29°C° 0,1 mm 3 m/s 755 mmHg 89%
    Arată mai mult